Tracking 28790 objects as of 19-Apr-2024
HD Live streaming from Space Station
objects crossing your sky now

SAUDICOMSAT 2

Track SAUDICOMSAT 2 now!
10-day predictions
SAUDICOMSAT 2 is classified as:


NORAD ID: 28370
Int'l Code: 2004-025E
Perigee: 696.3 km
Apogee: 778.4 km
Inclination: 98.6 °
Period: 99.4 minutes
Semi major axis: 7108 km
RCS: 0.0638 m2 (small)
Launch date: June 29, 2004
Source: Saudi Arabia (SAUD)
Launch site: TYURATAM MISSILE AND SPACE COMPLEX (TTMTR)
Your satellite tracking list
Your tracking list is empty




NASA's NSSDC Master Catalog

Two Line Element Set (TLE):
1 28370U 04025E   24109.88560128  .00001303  00000-0  35174-3 0  9995
2 28370  98.6259  90.5625 0057697 128.3454 232.2944 14.48601606 45763
Source of the keplerian elements: AFSPC